Location: Aiyekoto
(8.4333°N, 4.3667°E)
Time: 23:39:51
(UTC+00:00)

ATLAS 5 CENTAUR R/B - Pass Details

Date: 07 October 2020
Orbit: 527 x 1131 km, 63.4° (Epoch: 28 October)

Event Time Altitude Azimuth Distance (km) Brightness Sun altitude
Rises 18:01:55 0° 187° (S) 2,765 5.1 -8.7°
Reaches altitude 10° 18:04:22 10° 176° (S) 1,817 4.0 -9.3°
Maximum altitude 18:07:56 31° 113° (ESE) 941 2.0 -10.2°
Enters shadow 18:11:21 10° 50° (NE) 1,743 3.4 -11.0°
